Location: Doazon
(43.4500°N, 0.5500°W)
Time: 00:59:38
(UTC+00:00)

SKYMED 2 - Pass Details

Date: 05 December 2025
Orbit: 622 x 623 km, 97.9° (Epoch: 17 January)

Event Time Altitude Azimuth Distance (km) Brightness Sun altitude
Exits shadow 18:22:59 17° 8° (N) 1,613 5.5 -20.5°
Maximum altitude 18:26:22 73° 285° (WNW) 654 3.7 -21.1°
Drops below altitude 10° 18:30:40 10° 201° (SSW) 1,986 6.5 -21.9°
Sets 18:32:51 0° 199° (SSW) 2,888 7.4 -22.3°
